SCP
0 0 0 0 0 0 0 0 0 0 0 0 0 0 0 0 0 0 0 0 0 0
0 0 0 0 0 0 0 0 0 0 0 0 0 0 0 0 0 0 0 0 0 0
0 0 0 0 0 0 0 0 0 0 0 0 0 0 0 0 0 0 0 0 0 0
0 0 0 0 0 0 0 0 0 0 0 0 0 0 0 0 0 0 0 0 0 0
0 0 0 0 0 0 0 0 0 0 0 0 0 0 0 0 0 0 0 0 0 0
0 0 0 0 0 0 0 0 0 0 0 0 0 0 0 0 0 0 0 0 0 0
0 0 0 0 0 0 0 0 0 0 0 0 0 0 0 0 0 0 0 0 0 0
0 0 0 0 0 0 0 0 0 0 0 0 0 0 0 0 0 0 0 0 0 0
0 0 0 0 0 0 0 0 0 0 0 0 0 0 0 0 0 0 0 0 0 0
0 0 0 0 0 0 0 0 0 0 0 0 0 0 0 0 0 0 0 0 0 0
0 0 0 0 0 0 0 0 0 0 0 0 0 0 0 0 0 0 0 0 0 0
0 0 0 0 0 0 0 0 0 0 0 0 0 0 0 0 0 0 0 0 0 0
0 0 0 0 0 0 0 0 0 0 0 0 0 0 0 0 0 0 0 0 0 0
0 0 0 0 0 0 0 0 0 0 0 0 0 0 0 0 0 0 0 0 0 0
Wind_Speed_500mb
56 52 51 44 41 42 40 36 27 24 20 19 15 12 10 9 11 13 15 18 20 22
60 55 51 51 48 49 47 40 33 27 22 19 17 14 12 11 11 13 16 20 23 25
64 59 56 58 56 54 49 43 36 30 24 21 19 15 13 11 12 15 19 22 25 27
64 63 62 66 64 59 51 41 37 26 24 22 17 13 12 13 15 18 21 24 26 28
65 62 71 64 62 58 46 34 28 30 24 18 15 12 12 14 17 20 23 25 27 29
66 69 65 59 53 45 35 34 31 26 21 16 14 12 13 16 20 23 25 28 30 33
64 62 57 52 40 36 36 34 28 22 17 14 12 12 15 18 20 23 25 28 31 36
53 49 46 44 45 42 35 28 22 18 13 10 11 12 15 19 23 26 26 30 35 39
53 50 49 47 42 37 31 25 19 14 10 9 12 16 19 22 26 31 36 38 40 42
55 54 49 44 39 33 28 22 17 11 8 10 14 19 24 28 31 35 39 42 45 47
56 51 47 41 36 30 24 18 12 8 7 12 18 25 30 35 35 38 41 44 46 48
52 49 44 38 33 26 20 15 9 7 10 15 23 30 35 37 39 41 44 45 47 50
49 44 41 34 28 21 15 9 7 10 18 24 28 32 36 39 43 45 47 48 50 49
46 40 34 28 22 16 11 7 10 17 21 25 29 30 33 37 43 47 52 53 55 55
Wind_Direction_500mb
211 213 215 219 213 209 211 216 225 241 252 265 252 246 258 275 292 308 320 325 323 319
210 213 217 217 210 211 214 219 224 230 230 237 232 238 249 268 293 312 319 320 319 316
211 215 214 216 213 213 213 218 216 217 216 212 228 237 258 284 301 311 314 316 316 314
212 213 213 216 210 212 211 211 216 204 208 210 226 245 266 285 300 309 314 316 315 316
215 212 200 194 200 203 210 194 195 201 204 214 231 249 271 289 303 312 316 319 317 315
198 199 195 196 200 197 193 192 197 199 206 223 236 258 280 299 310 316 320 319 319 319
198 192 195 193 186 182 187 191 193 200 217 228 251 275 294 306 312 313 315 314 314 316
188 187 185 182 182 182 182 188 197 205 215 240 265 283 299 305 308 309 308 307 310 313
183 179 179 179 177 179 183 187 190 202 223 257 285 299 304 308 309 310 311 311 312 314
178 178 176 176 177 178 180 183 189 204 242 277 295 304 308 311 312 312 311 313 316 318
174 174 173 174 174 176 177 182 196 218 264 294 305 309 310 310 309 309 310 314 318 318
173 174 173 173 173 174 178 185 205 252 286 307 307 307 307 310 311 310 312 315 317 321
171 174 170 171 170 174 181 200 244 294 300 302 305 309 311 310 310 312 313 318 322 323
166 168 168 168 169 177 192 233 288 295 303 305 305 307 309 310 313 317 318 322 323 324
Wind_Speed_850mb
56 52 51 44 41 42 40 36 27 24 20 19 15 12 10 9 11 13 15 18 20 22
60 55 51 51 48 49 47 40 33 27 22 19 17 14 12 11 11 13 16 20 23 25
64 59 56 58 56 54 49 43 36 30 24 21 19 15 13 11 12 15 19 22 25 27
64 63 62 66 64 59 51 41 37 26 24 22 17 13 12 13 15 18 21 24 26 28
65 62 71 64 62 58 46 34 28 30 24 18 15 12 12 14 17 20 23 25 27 29
66 69 65 59 53 45 35 34 31 26 21 16 14 12 13 16 20 23 25 28 30 33
64 62 57 52 40 36 36 34 28 22 17 14 12 12 15 18 20 23 25 28 31 36
53 49 46 44 45 42 35 28 22 18 13 10 11 12 15 19 23 26 26 30 35 39
53 50 49 47 42 37 31 25 19 14 10 9 12 16 19 22 26 31 36 38 40 42
55 54 49 44 39 33 28 22 17 11 8 10 14 19 24 28 31 35 39 42 45 47
56 51 47 41 36 30 24 18 12 8 7 12 18 25 30 35 35 38 41 44 46 48
52 49 44 38 33 26 20 15 9 7 10 15 23 30 35 37 39 41 44 45 47 50
49 44 41 34 28 21 15 9 7 10 18 24 28 32 36 39 43 45 47 48 50 49
46 40 34 28 22 16 11 7 10 17 21 25 29 30 33 37 43 47 52 53 55 55
Wind_Direction_850mb
211 213 215 219 213 209 211 216 225 241 252 265 252 246 258 275 292 308 320 325 323 319
210 213 217 217 210 211 214 219 224 230 230 237 232 238 249 268 293 312 319 320 319 316
211 215 214 216 213 213 213 218 216 217 216 212 228 237 258 284 301 311 314 316 316 314
212 213 213 216 210 212 211 211 216 204 208 210 226 245 266 285 300 309 314 316 315 316
215 212 200 194 200 203 210 194 195 201 204 214 231 249 271 289 303 312 316 319 317 315
198 199 195 196 200 197 193 192 197 199 206 223 236 258 280 299 310 316 320 319 319 319
198 192 195 193 186 182 187 191 193 200 217 228 251 275 294 306 312 313 315 314 314 316
188 187 185 182 182 182 182 188 197 205 215 240 265 283 299 305 308 309 308 307 310 313
183 179 179 179 177 179 183 187 190 202 223 257 285 299 304 308 309 310 311 311 312 314
178 178 176 176 177 178 180 183 189 204 242 277 295 304 308 311 312 312 311 313 316 318
174 174 173 174 174 176 177 182 196 218 264 294 305 309 310 310 309 309 310 314 318 318
173 174 173 173 173 174 178 185 205 252 286 307 307 307 307 310 311 310 312 315 317 321
171 174 170 171 170 174 181 200 244 294 300 302 305 309 311 310 310 312 313 318 322 323
166 168 168 168 169 177 192 233 288 295 303 305 305 307 309 310 313 317 318 322 323 324